timestamp,surface_pressure_avg,surface_temp_avg,battery_voltage,lat,long
2020-09-17 00:09:01+00:00,352.06300000000016,15.8,12.81,47.84626,-54.09684
2020-09-17 00:19:01+00:00,350.1929,15.8,12.73,47.84626,-54.09684
2020-09-17 00:29:01+00:00,337.3063,15.8,12.73,47.84626,-54.09684
2020-09-17 00:39:01+00:00,333.0463,15.8,12.73,47.84626,-54.09684
2020-09-17 00:49:01+00:00,334.8713,15.8,12.73,47.84626,-54.09684
2020-09-17 00:59:01+00:00,329.3563,15.8,12.73,47.84626,-54.09684
2020-09-17 01:09:01+00:00,319.488,15.8,12.73,47.84626,-54.09684
2020-09-17 01:19:01+00:00,316.1296,15.8,12.73,47.84626,-54.09684
2020-09-17 01:29:01+00:00,310.4764,15.8,12.73,47.84626,-54.09684
2020-09-17 01:39:01+00:00,296.118,15.8,12.73,47.84626,-54.09684
2020-09-17 01:49:01+00:00,284.043,15.8,12.73,47.84626,-54.09684
2020-09-17 01:59:01+00:00,273.733,15.8,12.73,47.84626,-54.09684
2020-09-17 02:09:01+00:00,265.9264,15.8,12.73,47.84626,-54.09684
2020-09-17 02:19:01+00:00,255.6181,15.8,12.73,47.84626,-54.09684
2020-09-17 02:29:01+00:00,247.1714,15.8,12.73,47.84626,-54.09684
2020-09-17 02:39:01+00:00,233.5497,15.8,12.73,47.84626,-54.09684
2020-09-17 02:49:01+00:00,221.1464,15.8,12.73,47.84626,-54.09684
2020-09-17 02:59:01+00:00,214.0215,15.8,12.73,47.84626,-54.09684
2020-09-17 03:09:01+00:00,208.5314,15.8,12.73,47.84626,-54.09684
2020-09-17 03:19:01+00:00,198.0448,15.78,12.73,47.84626,-54.09684
2020-09-17 03:29:01+00:00,190.0498,15.75,12.73,47.84626,-54.09684
2020-09-17 03:39:01+00:00,189.5398,15.76,12.73,47.84626,-54.09684
2020-09-17 03:49:01+00:00,183.5631,15.7,12.73,47.84626,-54.09684
2020-09-17 03:59:01+00:00,172.2349,15.7,12.73,47.84626,-54.09684
2020-09-17 04:09:01+00:00,171.2249,15.7,12.73,47.84626,-54.09684
2020-09-17 04:19:01+00:00,170.6365,15.7,12.73,47.84626,-54.09684
2020-09-17 04:29:01+00:00,161.5982,15.69,12.73,47.84626,-54.09684
2020-09-17 04:39:01+00:00,160.8031,15.69,12.73,47.84626,-54.09684
2020-09-17 04:49:01+00:00,164.3115,15.69,12.73,47.84626,-54.09684
2020-09-17 04:59:01+00:00,156.2665,15.69,12.73,47.84626,-54.09684
2020-09-17 05:09:01+00:00,150.0115,15.69,12.73,47.84626,-54.09684
2020-09-17 05:19:01+00:00,155.3381,15.69,12.73,47.84626,-54.09684
2020-09-17 05:29:01+00:00,158.0198,15.69,12.73,47.84626,-54.09684
2020-09-17 05:39:01+00:00,154.4232,15.66,12.73,47.84626,-54.09684
2020-09-17 05:49:01+00:00,158.5332,15.63,12.73,47.84626,-54.09684
2020-09-17 05:59:01+00:00,163.0665,15.64,12.73,47.84626,-54.09684
2020-09-17 06:09:01+00:00,163.3282,15.6,12.73,47.84626,-54.09684
2020-09-17 06:19:01+00:00,167.9382,15.6,12.73,47.84626,-54.09684
2020-09-17 06:29:01+00:00,179.6748,15.6,12.73,47.84626,-54.09684
2020-09-17 06:39:01+00:00,185.7948,15.6,12.73,47.84626,-54.09684
2020-09-17 06:49:01+00:00,183.1548,15.6,12.73,47.84626,-54.09684
2020-09-17 06:59:01+00:00,187.1831,15.61,12.73,47.84626,-54.09684
2020-09-17 07:09:01+00:00,198.0798,15.6,12.73,47.84626,-54.09684
2020-09-17 07:19:01+00:00,204.5098,15.61,12.73,47.84626,-54.09684
2020-09-17 07:29:01+00:00,209.5148,15.65,12.73,47.84626,-54.09684
2020-09-17 07:39:01+00:00,216.2714,15.68,12.73,47.84626,-54.09684
2020-09-17 07:49:01+00:00,222.3798,15.69,12.73,47.84626,-54.09684
2020-09-17 07:59:01+00:00,230.0365,15.7,12.73,47.84626,-54.09684
2020-09-17 08:09:01+00:00,237.8181,15.7,12.73,47.84626,-54.09684
2020-09-17 08:19:01+00:00,243.4564,15.7,12.73,47.84626,-54.09684
2020-09-17 08:29:01+00:00,249.5581,15.74,12.73,47.84626,-54.09684
2020-09-17 08:39:01+00:00,257.7747,15.78,12.73,47.84626,-54.09684
2020-09-17 08:49:01+00:00,266.3981,15.78,12.73,47.84626,-54.09684
2020-09-17 08:59:01+00:00,270.7647,15.76,12.73,47.84626,-54.09684
2020-09-17 09:09:01+00:00,276.7281,15.75,12.73,47.84626,-54.09684
2020-09-17 09:19:01+00:00,286.8747,15.76,12.73,47.84626,-54.09684
2020-09-17 09:29:01+00:00,292.6597,15.74,12.73,47.84626,-54.09684
2020-09-17 09:39:01+00:00,298.0214,15.73,12.73,47.84626,-54.09684
2020-09-17 09:49:01+00:00,308.7798,15.72,12.73,47.84626,-54.09684
2020-09-17 09:59:01+00:00,319.6862,15.72,12.73,47.84626,-54.09684
2020-09-17 10:09:01+00:00,322.1463,15.7,12.73,47.84626,-54.09684
2020-09-17 10:19:01+00:00,326.2163,15.7,12.73,47.84626,-54.09684
2020-09-17 10:29:01+00:00,336.2347,15.7,12.73,47.84626,-54.09684
2020-09-17 10:39:01+00:00,341.423,15.7,12.73,47.84626,-54.09684
2020-09-17 10:49:01+00:00,343.7913,15.7,12.73,47.84626,-54.09684
2020-09-17 10:59:01+00:00,346.1647,15.7,12.73,47.84626,-54.09684
2020-09-17 11:09:01+00:00,347.6663,15.7,12.73,47.84626,-54.09684
2020-09-17 11:19:01+00:00,348.6229,15.7,13.13,47.84626,-54.09684
2020-09-17 11:29:01+00:00,351.1746,15.7,13.13,47.84626,-54.09684
2020-09-17 11:39:01+00:00,353.5596,15.7,13.13,47.84626,-54.09684
2020-09-17 11:49:01+00:00,349.57800000000015,15.7,13.13,47.84626,-54.09684
2020-09-17 11:59:01+00:00,346.1646,15.7,13.13,47.84626,-54.09684
2020-09-17 12:09:01+00:00,344.7679,15.7,13.13,47.84626,-54.09684
2020-09-17 12:19:01+00:00,341.3812,15.7,14.24,47.84626,-54.09684
2020-09-17 12:29:01+00:00,337.5396,15.7,14.24,47.84626,-54.09684
2020-09-17 12:39:01+00:00,334.1346,15.7,14.24,47.84626,-54.09684
2020-09-17 12:49:01+00:00,328.8863,15.7,14.24,47.84626,-54.09684
2020-09-17 12:59:01+00:00,323.678,15.7,14.24,47.84626,-54.09684
2020-09-17 13:09:01+00:00,320.5447,15.7,14.24,47.84626,-54.09684
2020-09-17 13:19:01+00:00,316.0546,15.7,14.48,47.84626,-54.09684
2020-09-17 13:29:01+00:00,308.5564,15.73,14.48,47.84626,-54.09684
2020-09-17 13:39:01+00:00,301.9031,15.75,14.48,47.84626,-54.09684
2020-09-17 13:49:01+00:00,296.818,15.74,14.48,47.84626,-54.09684
2020-09-17 13:59:01+00:00,286.263,15.76,14.48,47.84626,-54.09684
2020-09-17 14:09:01+00:00,271.6931,15.8,14.48,47.84626,-54.09684
2020-09-17 14:19:01+00:00,263.1731,15.8,14.4,47.84626,-54.09684
2020-09-17 14:29:01+00:00,256.3448,15.8,14.4,47.84626,-54.09684
2020-09-17 14:39:01+00:00,245.9931,15.8,14.4,47.84626,-54.09684
2020-09-17 14:49:01+00:00,236.0481,15.8,14.4,47.84626,-54.09684
2020-09-17 14:59:01+00:00,230.3781,15.8,14.4,47.84626,-54.09684
2020-09-17 15:09:01+00:00,219.9398,15.9,14.4,47.84626,-54.09684
2020-09-17 15:19:01+00:00,208.0964,15.9,14.4,47.84626,-54.09684
2020-09-17 15:29:01+00:00,200.4548,15.99,14.4,47.84626,-54.09684
2020-09-17 15:39:01+00:00,190.1165,16.03,14.4,47.84626,-54.09684
2020-09-17 15:49:01+00:00,177.4748,16.1,14.4,47.84626,-54.09684
2020-09-17 15:59:01+00:00,172.3181,16.1,14.4,47.84626,-54.09684
2020-09-17 16:09:01+00:00,168.1915,16.18,14.4,47.84626,-54.09684
2020-09-17 16:19:01+00:00,160.8248,16.2,14.32,47.84626,-54.09684
2020-09-17 16:29:01+00:00,156.7765,16.2,14.32,47.84626,-54.09684
2020-09-17 16:39:01+00:00,155.1115,16.28,14.32,47.84626,-54.09684
2020-09-17 16:49:01+00:00,151.7548,16.3,14.32,47.84626,-54.09684
2020-09-17 16:59:01+00:00,152.6715,16.34,14.32,47.84626,-54.09684
2020-09-17 17:09:01+00:00,154.8065,16.4,14.32,47.84626,-54.09684
2020-09-17 17:19:01+00:00,152.1482,16.39,14.16,47.84626,-54.09684
2020-09-17 17:29:01+00:00,150.2415,16.4,14.16,47.84626,-54.09684
2020-09-17 17:39:01+00:00,147.4932,16.39,14.16,47.84626,-54.09684
2020-09-17 17:49:01+00:00,145.3865,16.4,14.16,47.84626,-54.09684
2020-09-17 17:59:01+00:00,149.6515,16.4,14.16,47.84626,-54.09684
2020-09-17 18:09:01+00:00,156.0515,16.36,14.16,47.84626,-54.09684
2020-09-17 18:19:01+00:00,156.6182,16.29,14.08,47.84626,-54.09684
2020-09-17 18:29:01+00:00,159.7548,16.22,14.08,47.84626,-54.09684
2020-09-17 18:39:01+00:00,168.2815,16.2,14.08,47.84626,-54.09684
2020-09-17 18:49:01+00:00,170.5898,16.1,14.08,47.84626,-54.09684
2020-09-17 18:59:01+00:00,170.5015,16.1,14.08,47.84626,-54.09684
2020-09-17 19:09:01+00:00,178.7298,16.1,14.08,47.84626,-54.09684
2020-09-17 19:19:01+00:00,187.3615,16.1,13.84,47.84626,-54.09684
2020-09-17 19:29:01+00:00,189.9114,16.07,13.84,47.84626,-54.09684
2020-09-17 19:39:01+00:00,192.4431,16.09,13.84,47.84626,-54.09684
2020-09-17 19:49:01+00:00,202.8914,16.1,13.84,47.84626,-54.09684
2020-09-17 19:59:01+00:00,212.9364,16.1,13.84,47.84626,-54.09684
2020-09-17 20:09:01+00:00,214.9931,16.07,13.84,47.84626,-54.09684
2020-09-17 20:19:01+00:00,222.0431,16.09,13.68,47.84626,-54.09684
2020-09-17 20:29:01+00:00,234.2848,16.1,13.68,47.84626,-54.09684
2020-09-17 20:39:01+00:00,243.5348,16.1,13.68,47.84626,-54.09684
2020-09-17 20:49:01+00:00,249.6714,16.1,13.68,47.84626,-54.09684
2020-09-17 20:59:01+00:00,259.2663,16.08,13.68,47.84626,-54.09684
2020-09-17 21:09:01+00:00,269.8814,16.07,13.68,47.84626,-54.09684
2020-09-17 21:19:01+00:00,278.3581,16.06,13.37,47.84626,-54.09684
2020-09-17 21:29:01+00:00,284.803,16.0,13.37,47.84626,-54.09684
2020-09-17 21:39:01+00:00,293.088,16.0,13.37,47.84626,-54.09684
2020-09-17 21:49:01+00:00,301.0664,16.0,13.37,47.84626,-54.09684
2020-09-17 21:59:01+00:00,314.2247,16.0,13.37,47.84626,-54.09684
2020-09-17 22:09:01+00:00,325.9862,16.0,13.37,47.84626,-54.09684
2020-09-17 22:19:01+00:00,334.7046,16.0,13.05,47.84626,-54.09684
2020-09-17 22:29:01+00:00,342.608,16.0,13.05,47.84626,-54.09684
2020-09-17 22:39:01+00:00,351.68800000000016,16.0,13.05,47.84626,-54.09684
2020-09-17 22:49:01+00:00,357.0179,16.0,13.05,47.84626,-54.09684
2020-09-17 22:59:01+00:00,362.3913,16.0,13.05,47.84626,-54.09684
2020-09-17 23:09:01+00:00,370.2247,16.0,13.05,47.84626,-54.09684
2020-09-17 23:19:01+00:00,375.7562,15.99,12.81,47.84626,-54.09684
2020-09-17 23:29:01+00:00,379.2246,15.98,12.81,47.84626,-54.09684
2020-09-17 23:39:01+00:00,382.2813,15.97,12.81,47.84626,-54.09684
2020-09-17 23:49:01+00:00,384.7279,15.96,12.81,47.84626,-54.09684
2020-09-17 23:59:01+00:00,384.6979,15.95,12.81,47.84626,-54.09684
